Location: Plymouth Village
(34.0436°N, 117.1717°W)
Time: 03:59:57
(UTC+00:00)

Cosmos 2058 Rocket - Pass Details

Date: 10 September 2024
Orbit: 607 x 634 km, 82.5° (Epoch: 09 October)

Event Time Altitude Azimuth Distance (km) Brightness Sun altitude
Rises 12:24:56 0° 177° (S) 2,874 6.4 -13.8°
Reaches altitude 10° 12:27:09 10° 174° (S) 1,978 5.6 -13.4°
Maximum altitude 12:31:28 61° 94° (E) 708 3.6 -12.5°
Drops below altitude 10° 12:35:51 10° 14° (NNE) 2,009 6.1 -11.7°
Sets 12:38:07 0° 11° (N) 2,924 6.9 -11.2°
